Alkor — DBND — position and weather

sailwx.info

Track history (hours):
 
Tides and Currents Weather Stations Pressure Air Temp Water Temp Dewpoint Dewpoint Depression Visibility Wind Speed Wind Dir Waves Ship Positions

Oceanographic research ship Alkor (Germany)

Ship's website: http://www.briese.de/

Detailed information on ship capabilities available from University of Delaware's Ocean Information Center.

Last reported at 2017-Jun-26 07:48 UTC. Time now 2017-Jun-26 08:39 UTC.
Position N 54°20' E 010°11'.

Length 55 m; draft 4.2 m.

Type: Ship. MMSI: 211216512.

Date/timePositionNaut miles runAvg speedWind from/ knotsBaromVisibWave heightAir tempDewpointWater temp
2017-Jun-26 07:48N 54°20' E 010°11'0 0.0
2017-Jun-26 07:30N 54°20' E 010°11'0 0.0
2017-Jun-26 07:00N 54°20' E 010°11'0 0.0
2017-Jun-26 06:30N 54°20' E 010°11'0 0.3
2017-Jun-26 05:59N 54°20' E 010°10'1 0.2
2017-Jun-26 00:58N 54°20' E 010°09'0 0.0
2017-Jun-26 00:22N 54°20' E 010°09'0 0.0
2017-Jun-25 23:52N 54°20' E 010°09'0 0.0
2017-Jun-25 23:28N 54°20' E 010°09'0 0.0
2017-Jun-25 22:58N 54°20' E 010°09'0 0.0
2017-Jun-25 22:28N 54°20' E 010°09'0 0.0
2017-Jun-25 21:28N 54°20' E 010°09'0 0.0
2017-Jun-25 20:58N 54°20' E 010°09'0 0.0
2017-Jun-25 20:22N 54°20' E 010°09'0 0.0
2017-Jun-25 19:22N 54°20' E 010°09'0 0.0
2017-Jun-25 18:55N 54°20' E 010°09'0 0.0
2017-Jun-25 18:28N 54°20' E 010°09'0 0.0
2017-Jun-25 17:52N 54°20' E 010°09'0 0.0
2017-Jun-25 17:28N 54°20' E 010°09'0 0.0
2017-Jun-25 16:52N 54°20' E 010°09'0 0.0
2017-Jun-25 16:28N 54°20' E 010°09'0 0.0
2017-Jun-25 15:58N 54°20' E 010°09'0 0.0
2017-Jun-25 15:25N 54°20' E 010°09'0 0.0
2017-Jun-25 14:55N 54°20' E 010°09'0 0.0
2017-Jun-25 14:28N 54°20' E 010°09'0 0.0
2017-Jun-25 13:28N 54°20' E 010°09'0 0.0
2017-Jun-25 12:52N 54°20' E 010°09'0 0.0
2017-Jun-25 12:10N 54°20' E 010°09'0 0.0
2017-Jun-25 11:58N 54°20' E 010°09'0 0.0
2017-Jun-25 11:28N 54°20' E 010°09'0 0.0
2017-Jun-25 10:58N 54°20' E 010°09'0 0.0
2017-Jun-25 01:16N 54°20' E 010°09'0 0.0
2017-Jun-25 00:58N 54°20' E 010°09'0 0.0
2017-Jun-25 00:24N 54°20' E 010°09'0 0.0
2017-Jun-24 23:37N 54°20' E 010°09'0 0.0
2017-Jun-24 23:15N 54°20' E 010°09'0 0.0
2017-Jun-24 22:58N 54°20' E 010°09'0 0.0
2017-Jun-24 22:28N 54°20' E 010°09'0 0.0
2017-Jun-24 21:58N 54°20' E 010°09'0 0.0
2017-Jun-24 21:27N 54°20' E 010°09'0 0.0
2017-Jun-24 20:58N 54°20' E 010°09'0 0.0
2017-Jun-24 20:28N 54°20' E 010°09'0 0.0
2017-Jun-24 19:57N 54°20' E 010°09'0 0.0
2017-Jun-24 19:30N 54°20' E 010°09'0 0.0
2017-Jun-24 18:52N 54°20' E 010°09'0 0.0
2017-Jun-24 17:39N 54°20' E 010°09'0 0.0
2017-Jun-24 16:49N 54°20' E 010°09'0 0.0
2017-Jun-24 16:30N 54°20' E 010°09'0 0.0
2017-Jun-24 15:48N 54°20' E 010°09'0 0.0
2017-Jun-24 15:30N 54°20' E 010°09'0 0.0
2017-Jun-24 14:51N 54°20' E 010°09'0 0.0
2017-Jun-24 13:57N 54°20' E 010°09'0 0.0
2017-Jun-24 13:15N 54°20' E 010°09'  
2017-Jun-22 07:56N 54°27' E 010°14'1 0.1
2017-Jun-21 12:12N 54°27' E 010°14'311.2
2017-Jun-21 11:58N 54°29' E 010°13'3 1.2
2017-Jun-21 09:19N 54°32' E 010°15'4 5.5
2017-Jun-21 08:33N 54°28' E 010°14'0 0.3
2017-Jun-21 08:30N 54°28' E 010°14'0 0.1
2017-Jun-21 07:59N 54°28' E 010°14'3 6.1
2017-Jun-21 07:30N 54°25' E 010°13'510.5
2017-Jun-21 07:00N 54°20' E 010°10'1 0.9
2017-Jun-21 06:28N 54°20' E 010°09'0 0.0
2017-Jun-21 05:55N 54°20' E 010°09'0 0.0
2017-Jun-21 05:25N 54°20' E 010°09'0 0.0
2017-Jun-21 04:43N 54°20' E 010°09'0 0.0
2017-Jun-21 04:16N 54°20' E 010°09'0 0.0
2017-Jun-21 03:55N 54°20' E 010°09'0 0.0
2017-Jun-21 03:22N 54°20' E 010°09'0 0.0
2017-Jun-21 02:52N 54°20' E 010°09'0 0.0
2017-Jun-21 02:28N 54°20' E 010°09'0 0.0
2017-Jun-21 01:58N 54°20' E 010°09'0 0.0
2017-Jun-21 01:28N 54°20' E 010°09'0 0.0
2017-Jun-21 00:58N 54°20' E 010°09'0 0.0
2017-Jun-21 00:16N 54°20' E 010°09'0 0.0
2017-Jun-20 23:49N 54°20' E 010°09'0 0.0
2017-Jun-20 23:28N 54°20' E 010°09'0 0.0
2017-Jun-20 22:52N 54°20' E 010°09'0 0.0
2017-Jun-20 22:28N 54°20' E 010°09'0 0.0
2017-Jun-20 21:52N 54°20' E 010°09'0 0.0
2017-Jun-20 21:28N 54°20' E 010°09'0 0.0
2017-Jun-20 20:58N 54°20' E 010°09'0 0.0
2017-Jun-20 20:28N 54°20' E 010°09'0 0.0
2017-Jun-20 19:52N 54°20' E 010°09'0 0.0
2017-Jun-20 19:28N 54°20' E 010°09'0 0.0
2017-Jun-20 18:58N 54°20' E 010°09'0 0.0
2017-Jun-20 18:22N 54°20' E 010°09'0 0.0
2017-Jun-20 17:46N 54°20' E 010°09'0 0.0
2017-Jun-20 17:25N 54°20' E 010°09'0 0.0
2017-Jun-20 16:58N 54°20' E 010°09'  
Track history (hours):
 
Tides and Currents Weather Stations Pressure Air Temp Water Temp Dewpoint Dewpoint Depression Visibility Wind Speed Wind Dir Waves Ship Positions

Oceanographic research ship Alkor (Germany)

Ship's website: http://www.briese.de/

Detailed information on ship capabilities available from University of Delaware's Ocean Information Center.

Last reported at 2017-Jun-26 07:48 UTC. Time now 2017-Jun-26 08:39 UTC.
Position N 54°20' E 010°11'.

Length 55 m; draft 4.2 m.

Type: Ship. MMSI: 211216512.

Date/timePositionNaut miles runAvg speedWind from/ knotsBaromVisibWave heightAir tempDewpointWater temp
2017-Jun-26 07:48N 54°20' E 010°11'0 0.0
2017-Jun-26 07:30N 54°20' E 010°11'0 0.0
2017-Jun-26 07:00N 54°20' E 010°11'0 0.0
2017-Jun-26 06:30N 54°20' E 010°11'0 0.3
2017-Jun-26 05:59N 54°20' E 010°10'1 0.2
2017-Jun-26 00:58N 54°20' E 010°09'0 0.0
2017-Jun-26 00:22N 54°20' E 010°09'0 0.0
2017-Jun-25 23:52N 54°20' E 010°09'0 0.0
2017-Jun-25 23:28N 54°20' E 010°09'0 0.0
2017-Jun-25 22:58N 54°20' E 010°09'0 0.0
2017-Jun-25 22:28N 54°20' E 010°09'0 0.0
2017-Jun-25 21:28N 54°20' E 010°09'0 0.0
2017-Jun-25 20:58N 54°20' E 010°09'0 0.0
2017-Jun-25 20:22N 54°20' E 010°09'0 0.0
2017-Jun-25 19:22N 54°20' E 010°09'0 0.0
2017-Jun-25 18:55N 54°20' E 010°09'0 0.0
2017-Jun-25 18:28N 54°20' E 010°09'0 0.0
2017-Jun-25 17:52N 54°20' E 010°09'0 0.0
2017-Jun-25 17:28N 54°20' E 010°09'0 0.0
2017-Jun-25 16:52N 54°20' E 010°09'0 0.0
2017-Jun-25 16:28N 54°20' E 010°09'0 0.0
2017-Jun-25 15:58N 54°20' E 010°09'0 0.0
2017-Jun-25 15:25N 54°20' E 010°09'0 0.0
2017-Jun-25 14:55N 54°20' E 010°09'0 0.0
2017-Jun-25 14:28N 54°20' E 010°09'0 0.0
2017-Jun-25 13:28N 54°20' E 010°09'0 0.0
2017-Jun-25 12:52N 54°20' E 010°09'0 0.0
2017-Jun-25 12:10N 54°20' E 010°09'0 0.0
2017-Jun-25 11:58N 54°20' E 010°09'0 0.0
2017-Jun-25 11:28N 54°20' E 010°09'0 0.0
2017-Jun-25 10:58N 54°20' E 010°09'0 0.0
2017-Jun-25 01:16N 54°20' E 010°09'0 0.0
2017-Jun-25 00:58N 54°20' E 010°09'0 0.0
2017-Jun-25 00:24N 54°20' E 010°09'0 0.0
2017-Jun-24 23:37N 54°20' E 010°09'0 0.0
2017-Jun-24 23:15N 54°20' E 010°09'0 0.0
2017-Jun-24 22:58N 54°20' E 010°09'0 0.0
2017-Jun-24 22:28N 54°20' E 010°09'0 0.0
2017-Jun-24 21:58N 54°20' E 010°09'0 0.0
2017-Jun-24 21:27N 54°20' E 010°09'0 0.0
2017-Jun-24 20:58N 54°20' E 010°09'0 0.0
2017-Jun-24 20:28N 54°20' E 010°09'0 0.0
2017-Jun-24 19:57N 54°20' E 010°09'0 0.0
2017-Jun-24 19:30N 54°20' E 010°09'0 0.0
2017-Jun-24 18:52N 54°20' E 010°09'0 0.0
2017-Jun-24 17:39N 54°20' E 010°09'0 0.0
2017-Jun-24 16:49N 54°20' E 010°09'0 0.0
2017-Jun-24 16:30N 54°20' E 010°09'0 0.0
2017-Jun-24 15:48N 54°20' E 010°09'0 0.0
2017-Jun-24 15:30N 54°20' E 010°09'0 0.0
2017-Jun-24 14:51N 54°20' E 010°09'0 0.0
2017-Jun-24 13:57N 54°20' E 010°09'0 0.0
2017-Jun-24 13:15N 54°20' E 010°09'  
2017-Jun-22 07:56N 54°27' E 010°14'1 0.1
2017-Jun-21 12:12N 54°27' E 010°14'311.2
2017-Jun-21 11:58N 54°29' E 010°13'3 1.2
2017-Jun-21 09:19N 54°32' E 010°15'4 5.5
2017-Jun-21 08:33N 54°28' E 010°14'0 0.3
2017-Jun-21 08:30N 54°28' E 010°14'0 0.1
2017-Jun-21 07:59N 54°28' E 010°14'3 6.1
2017-Jun-21 07:30N 54°25' E 010°13'510.5
2017-Jun-21 07:00N 54°20' E 010°10'1 0.9
2017-Jun-21 06:28N 54°20' E 010°09'0 0.0
2017-Jun-21 05:55N 54°20' E 010°09'0 0.0
2017-Jun-21 05:25N 54°20' E 010°09'0 0.0
2017-Jun-21 04:43N 54°20' E 010°09'0 0.0
2017-Jun-21 04:16N 54°20' E 010°09'0 0.0
2017-Jun-21 03:55N 54°20' E 010°09'0 0.0
2017-Jun-21 03:22N 54°20' E 010°09'0 0.0
2017-Jun-21 02:52N 54°20' E 010°09'0 0.0
2017-Jun-21 02:28N 54°20' E 010°09'0 0.0
2017-Jun-21 01:58N 54°20' E 010°09'0 0.0
2017-Jun-21 01:28N 54°20' E 010°09'0 0.0
2017-Jun-21 00:58N 54°20' E 010°09'0 0.0
2017-Jun-21 00:16N 54°20' E 010°09'0 0.0
2017-Jun-20 23:49N 54°20' E 010°09'0 0.0
2017-Jun-20 23:28N 54°20' E 010°09'0 0.0
2017-Jun-20 22:52N 54°20' E 010°09'0 0.0
2017-Jun-20 22:28N 54°20' E 010°09'0 0.0
2017-Jun-20 21:52N 54°20' E 010°09'0 0.0
2017-Jun-20 21:28N 54°20' E 010°09'0 0.0
2017-Jun-20 20:58N 54°20' E 010°09'0 0.0
2017-Jun-20 20:28N 54°20' E 010°09'0 0.0
2017-Jun-20 19:52N 54°20' E 010°09'0 0.0
2017-Jun-20 19:28N 54°20' E 010°09'0 0.0
2017-Jun-20 18:58N 54°20' E 010°09'0 0.0
2017-Jun-20 18:22N 54°20' E 010°09'0 0.0
2017-Jun-20 17:46N 54°20' E 010°09'0 0.0
2017-Jun-20 17:25N 54°20' E 010°09'0 0.0
2017-Jun-20 16:58N 54°20' E 010°09'  

Dump ship's entire track history